EHI
0 0 0 0 0 0 0 0 0 0 0 0 0 0 0 0 0 0 0 0 0 0 1 2 3 3 1 0 0 0 0 0 0 0 0 0 0 0 0 0 0 0 0 0
0 0 0 0 0 0 0 0 0 0 0 0 0 0 0 0 0 0 0 0 0 0 1 2 3 3 2 1 0 0 0 0 0 0 0 0 0 0 0 0 0 0 0 0
0 0 0 0 0 0 0 0 0 0 0 0 0 0 0 0 0 0 0 0 0 0 1 2 3 3 2 1 0 0 0 0 0 0 0 0 0 0 0 0 0 0 0 0
0 0 0 0 0 0 0 0 0 0 0 0 0 0 0 0 0 0 0 0 0 0 1 2 3 3 3 1 0 0 0 0 0 0 0 0 0 0 0 0 0 0 0 0
0 0 0 0 0 0 0 0 0 0 0 0 0 0 0 0 0 0 0 0 0 0 0 1 3 3 3 2 0 0 0 0 0 0 0 0 0 0 0 0 0 0 0 0
0 0 0 0 0 0 0 0 0 0 0 0 0 0 0 0 0 0 0 0 0 0 0 1 2 3 3 1 0 0 0 0 0 0 0 0 0 0 0 0 0 0 0 0
0 0 0 0 0 0 0 0 0 0 0 0 0 0 0 0 0 0 0 0 0 0 0 0 1 3 2 1 0 0 0 0 0 0 0 0 0 0 0 0 0 0 0 0
0 0 0 0 0 0 0 0 0 0 0 0 0 0 0 0 0 0 0 0 0 0 0 0 1 3 2 1 0 0 0 0 0 0 0 0 0 0 0 0 0 0 0 0
0 0 0 0 0 0 0 0 0 0 0 0 0 0 0 0 0 0 0 0 0 0 0 0 2 3 2 1 0 0 0 0 0 0 0 0 0 0 0 0 0 0 0 0
0 0 0 0 0 0 0 0 0 0 0 0 0 0 0 0 0 0 0 0 0 0 0 0 1 2 2 1 0 0 0 0 0 0 0 0 0 0 0 0 0 0 0 0
0 0 0 0 0 0 0 0 0 0 0 0 0 0 0 0 0 0 0 0 0 0 0 0 0 1 1 0 0 0 0 0 0 0 0 0 0 0 0 0 0 0 0 0
0 0 0 0 0 0 0 0 0 0 0 0 0 0 0 0 0 0 0 0 0 0 0 0 0 0 0 0 0 0 0 0 0 0 0 0 0 0 0 0 0 0 0 0
0 0 0 0 0 0 0 0 0 0 0 0 0 0 0 0 0 0 0 0 0 0 0 0 0 0 0 0 0 0 0 0 0 0 0 0 0 0 0 0 0 0 0 0
0 0 0 0 0 0 0 0 0 0 0 0 0 0 0 0 0 0 0 0 0 0 0 0 0 0 0 0 0 0 0 0 0 0 0 0 0 0 0 0 0 0 0 0
0 0 0 0 0 0 0 0 0 0 0 0 0 0 0 0 0 0 0 0 0 0 0 0 0 0 0 0 0 0 0 0 0 0 0 0 0 0 0 0 0 0 0 0
0 0 0 0 0 0 0 0 0 0 0 0 0 0 0 0 0 0 0 0 0 0 0 0 0 0 0 0 0 0 0 0 0 0 0 0 0 0 0 0 0 0 0 0
0 0 0 0 0 0 0 0 0 0 0 0 0 0 0 0 0 0 0 0 0 0 0 0 0 0 0 0 0 0 0 0 0 0 0 0 0 0 0 0 0 0 0 0
0 0 0 0 0 0 0 0 0 0 0 0 0 0 0 0 0 0 0 0 0 0 0 0 0 0 0 0 0 0 0 0 0 0 0 0 0 0 0 0 0 0 0 0
0 0 0 0 0 0 0 0 0 0 0 0 0 0 0 0 0 0 0 0 0 0 0 0 0 0 0 0 0 0 0 0 0 0 0 0 0 0 0 0 0 0 0 0
0 0 0 0 0 0 0 0 0 0 0 0 0 0 0 0 0 0 0 0 0 0 0 0 0 0 0 0 0 0 0 0 0 0 0 0 0 0 0 0 0 0 0 0
0 0 0 0 0 0 0 0 0 0 0 0 0 0 0 0 0 0 0 0 0 0 0 0 0 0 0 0 0 0 0 0 0 0 0 0 0 0 0 0 0 0 0 0
0 0 0 0 0 0 0 0 0 0 0 0 0 0 0 0 0 0 0 0 0 0 0 0 0 0 0 0 0 0 0 0 0 0 0 0 0 0 0 0 0 0 0 0
0 0 0 0 0 0 0 0 0 0 0 0 0 0 0 0 0 0 0 0 0 0 0 0 0 0 0 0 0 0 0 0 0 0 0 0 0 0 0 0 0 0 0 0
0 0 0 0 0 0 0 0 0 0 0 0 0 0 0 0 0 0 0 0 0 0 0 0 0 0 0 0 0 0 0 0 0 0 0 0 0 0 0 0 0 0 0 0
0 0 0 0 0 0 0 0 0 0 0 0 0 0 0 0 0 0 0 0 0 0 0 0 0 0 0 0 0 0 0 0 0 0 0 0 0 0 0 0 0 0 0 0
0 0 0 0 0 0 0 0 0 0 0 0 0 0 0 0 0 0 0 0 0 0 0 0 0 0 0 0 0 0 0 0 0 0 0 0 0 0 0 0 0 0 0 0
Wind_Speed
3 5 3 5 4 4 4 2 2 3 1 1 5 8 10 5 4 6 6 7 8 10 7 5 5 6 6 6 6 6 5 4 4 2 2 1 0 1 1 1 2 2 2 2
5 1 4 4 4 4 2 1 1 2 0 1 4 7 7 4 5 6 7 8 8 6 4 5 6 6 7 7 7 6 6 5 4 3 2 2 1 1 1 1 2 2 2 2
4 3 4 5 4 3 0 2 2 1 2 2 3 7 6 4 3 2 3 4 5 8 8 7 7 7 7 8 8 8 7 6 5 4 2 2 2 2 2 2 2 2 2 2
2 1 3 3 2 3 2 3 3 0 2 3 3 3 7 5 6 4 3 3 5 6 6 7 8 8 9 9 7 7 7 6 5 4 3 3 2 1 2 1 2 3 2 2
1 3 3 2 3 4 3 1 2 2 2 3 4 2 8 5 6 6 5 4 5 5 6 7 9 9 7 7 7 6 6 5 5 4 5 4 2 2 1 1 2 2 2 3
0 2 3 3 1 3 2 5 5 5 4 4 3 1 5 4 4 7 6 5 4 4 4 5 5 5 5 5 6 6 6 5 5 5 4 5 4 3 1 1 2 2 2 2
3 2 1 2 3 2 4 5 5 6 6 3 3 1 6 6 5 5 7 7 4 2 2 4 5 6 7 7 7 6 7 6 5 5 5 5 5 4 4 3 2 2 2 2
2 2 2 2 3 4 2 6 6 3 1 4 4 2 6 5 6 5 4 4 3 2 2 4 6 7 7 7 7 7 8 6 6 6 5 4 4 3 3 3 3 2 2 3
3 2 3 1 1 6 4 2 4 6 2 2 5 6 8 7 8 9 8 7 6 4 3 3 4 5 6 7 7 8 8 7 6 6 5 5 4 4 4 3 3 2 3 3
5 2 3 2 4 5 4 7 5 5 3 1 4 4 4 8 9 9 9 8 8 6 4 3 2 4 5 6 5 6 7 7 6 6 6 5 5 5 4 3 3 3 3 2
3 4 3 3 2 1 3 4 5 4 4 5 0 5 4 4 6 6 7 8 7 6 5 3 2 2 3 3 4 5 5 5 5 6 5 5 5 4 4 4 4 4 3 3
2 5 1 3 2 0 2 4 5 4 1 3 3 6 4 3 5 5 6 8 7 6 5 3 3 2 1 2 3 4 5 5 6 5 5 5 5 4 4 5 5 4 4 3
3 5 4 5 6 5 3 3 3 5 5 4 3 5 4 6 7 6 7 8 8 7 7 5 4 3 2 2 3 4 5 6 5 5 5 5 5 5 6 6 5 4 4 3
5 5 5 5 5 2 1 1 3 5 3 3 5 4 6 9 9 9 9 8 7 7 7 7 5 4 3 3 2 3 4 5 4 5 5 6 7 6 6 5 5 4 4 3
5 4 1 2 1 0 1 1 2 3 5 6 4 2 4 6 6 6 7 8 9 10 10 8 7 6 5 4 3 3 4 4 4 4 6 7 6 5 5 5 5 4 4 4
5 3 2 1 2 1 1 2 0 1 2 2 2 1 3 3 3 6 8 9 10 9 9 9 8 7 6 5 5 4 4 4 3 5 6 6 5 5 6 6 5 4 4 4
3 3 3 2 4 2 2 3 1 2 1 3 2 2 2 3 5 6 7 8 8 8 8 9 8 7 6 5 4 4 4 3 3 5 5 4 5 6 6 6 5 5 5 4
3 4 3 1 2 1 3 1 3 5 3 2 1 1 1 1 0 2 5 6 8 9 9 9 9 8 6 5 4 4 2 2 3 4 4 4 5 6 5 5 6 6 5 5
3 5 4 3 1 2 2 1 1 2 1 2 2 2 3 2 2 4 6 6 6 6 7 7 7 7 7 6 5 3 3 2 3 4 5 5 5 6 5 7 7 6 5 5
5 5 5 4 2 4 4 3 2 4 0 2 1 2 3 3 3 5 7 7 7 7 7 7 8 7 8 7 4 3 3 3 5 6 6 5 5 6 7 8 7 5 5 6
3 3 3 3 3 5 3 4 2 2 5 2 1 1 1 1 3 4 6 6 6 7 7 8 7 7 8 8 5 4 4 6 7 6 5 4 5 6 6 6 5 5 5 5
4 4 3 4 3 6 2 2 3 4 2 1 0 1 0 1 2 3 5 6 7 8 9 8 8 8 7 7 6 6 7 8 6 5 5 5 5 5 4 4 4 5 6 6
3 5 5 6 5 2 1 1 1 1 1 1 1 1 1 1 2 3 4 6 7 7 8 7 7 8 8 7 6 7 9 8 6 5 5 5 5 5 4 4 4 4 5 5
2 2 3 1 3 1 1 0 1 0 1 1 1 1 0 1 2 4 4 5 6 7 7 7 8 9 10 9 8 8 9 7 6 6 6 5 4 5 4 4 4 4 6 6
4 2 2 2 3 2 2 1 1 1 1 1 0 0 0 0 2 3 4 5 5 6 6 6 7 8 10 10 9 9 8 7 7 7 6 5 5 5 5 5 5 6 7 8
5 7 7 7 7 5 5 3 2 1 1 2 1 1 1 1 2 3 3 4 5 6 6 7 7 8 10 10 10 10 8 7 7 7 6 5 5 4 4 4 5 7 7 11
Wind_Direction
81 86 145 185 178 160 146 150 230 260 238 219 262 277 285 275 238 235 230 224 225 228 228 202 183 169 159 159 161 165 158 155 142 125 124 119 180 307 319 314 323 338 340 347
66 118 194 153 132 115 108 97 296 308 321 230 290 288 287 266 239 230 226 225 225 226 215 197 179 170 172 174 175 174 172 168 170 159 150 154 156 222 263 300 323 329 334 334
140 200 160 139 136 124 104 179 210 273 346 13 342 330 329 318 310 286 241 224 218 212 210 199 186 183 179 182 184 183 181 177 175 156 119 86 58 28 5 336 322 320 324 329
108 159 147 137 149 147 265 232 190 177 44 343 33 332 311 322 331 327 300 247 229 221 209 196 187 188 193 192 182 177 176 175 172 161 158 151 154 189 239 259 285 306 322 329
165 159 150 162 208 168 215 55 89 76 104 26 19 64 302 341 344 323 308 279 254 229 211 204 197 195 192 181 176 174 171 176 174 173 170 159 165 196 238 280 301 313 321 323
192 176 176 194 164 153 137 64 56 50 66 40 342 69 305 313 302 312 318 309 280 247 221 210 193 179 179 174 172 169 172 183 181 179 175 175 180 186 198 264 291 302 310 311
22 354 250 150 95 62 83 80 36 19 25 303 313 89 262 283 293 287 295 303 301 277 217 200 188 187 187 183 180 176 179 190 189 187 191 193 193 189 200 219 236 258 287 291
83 314 269 189 168 153 137 126 139 148 202 300 346 309 269 297 311 317 317 322 340 321 260 221 206 198 194 189 183 181 187 195 193 196 204 202 197 194 210 218 221 232 241 258
142 279 310 263 154 126 121 111 147 123 113 25 328 321 319 343 354 356 356 357 342 322 298 261 223 202 196 193 192 191 192 199 200 201 202 204 205 207 217 227 226 236 246 257
140 113 339 343 68 40 108 135 94 92 110 27 331 333 306 326 332 340 344 338 327 328 321 295 248 216 206 201 196 188 192 202 205 203 206 207 209 213 217 220 230 239 249 255
102 111 350 25 62 134 86 77 88 93 132 136 351 290 261 285 309 322 323 326 326 325 319 307 289 252 217 196 189 195 201 205 207 207 211 213 213 211 210 219 232 235 241 241
92 107 53 302 307 9 122 139 138 130 166 140 149 265 299 307 313 324 327 334 341 341 337 339 340 347 313 220 210 210 210 212 217 209 207 216 219 209 212 226 235 231 237 240
113 96 64 358 349 8 56 85 101 115 111 138 154 259 336 0 357 353 345 344 348 356 2 4 7 359 326 275 241 226 220 222 222 207 206 214 217 213 218 227 231 225 227 234
100 94 141 180 218 264 343 86 119 114 129 182 213 251 327 348 352 350 350 347 356 5 7 5 357 346 332 307 272 248 240 227 221 210 210 217 219 217 221 223 221 219 218 221
78 100 139 213 249 193 239 277 163 165 179 181 223 216 311 327 335 340 348 360 11 8 4 358 347 338 334 330 309 278 260 238 219 212 218 226 225 218 217 218 219 218 215 221
50 101 73 4 19 25 17 340 10 138 142 155 110 332 317 327 358 9 9 12 9 360 354 347 344 341 336 323 312 298 276 251 215 217 229 230 221 215 215 217 215 213 217 220
45 100 94 295 317 24 343 323 107 98 73 135 163 238 307 1 23 15 7 10 2 350 345 342 337 328 317 311 299 290 279 260 221 226 235 229 221 221 222 218 210 212 215 212
127 103 110 79 36 216 247 5 110 106 67 52 64 336 316 286 275 30 19 6 355 348 343 339 334 329 320 315 316 303 307 279 246 244 248 239 227 229 225 215 217 219 210 206
137 127 109 106 118 292 302 353 124 123 59 15 28 357 342 323 8 6 5 358 344 336 330 326 323 321 324 326 323 324 316 300 279 266 260 251 235 232 226 222 224 220 210 212
65 86 107 119 152 232 253 297 299 113 277 318 4 343 346 34 17 318 334 341 343 342 338 335 332 337 342 333 330 331 313 303 282 271 263 256 242 233 231 228 224 216 209 216
63 64 111 148 203 256 272 302 65 131 249 270 253 301 6 127 224 275 319 336 340 341 340 341 342 344 337 333 332 318 308 287 280 279 271 259 246 242 240 233 226 211 206 205
169 148 165 145 185 247 307 65 139 215 235 201 249 296 326 268 300 324 339 341 343 345 345 345 344 336 333 337 334 316 300 291 296 289 272 260 250 248 251 238 232 211 198 200
195 187 184 185 205 229 287 201 238 174 173 226 217 279 289 314 325 331 337 339 340 338 336 336 335 331 332 333 332 314 302 304 303 292 279 271 261 247 239 228 229 220 203 205
270 151 141 230 253 255 306 340 2 106 178 230 221 244 296 310 321 333 334 334 334 332 330 331 335 335 330 329 324 310 309 307 300 291 285 280 266 260 250 236 222 219 213 212
235 170 157 238 260 298 284 251 254 12 35 39 356 293 221 314 325 320 321 320 320 322 321 325 327 324 319 321 321 316 315 311 301 293 288 284 271 258 250 243 234 230 229 219
208 181 177 215 213 191 223 230 211 191 239 240 220 337 335 317 290 305 304 302 307 313 314 317 318 317 316 319 319 318 314 310 300 296 290 281 274 270 259 256 274 261 252 246